TimeCDT,TemperatureF,Dew PointF,Humidity,Sea Level PressureIn,VisibilityMPH,Wind Direction,Wind SpeedMPH,Gust SpeedMPH,PrecipitationIn,Events,Conditions,WindDirDegrees,DateUTC
12:32 AM,55.4,46.4,72,30.04,10.0,SSE,10.4,18.4,N/A,,Overcast,160,2012-10-13 05:32:00
12:53 AM,55.0,46.9,74,30.04,10.0,SSE,10.4,-,N/A,,Overcast,160,2012-10-13 05:53:00
1:13 AM,55.4,46.4,72,30.02,10.0,South,10.4,19.6,N/A,,Overcast,170,2012-10-13 06:13:00
1:53 AM,55.0,48.0,77,30.00,10.0,South,11.5,18.4,N/A,,Overcast,170,2012-10-13 06:53:00
2:53 AM,55.0,48.9,80,29.98,10.0,South,11.5,-,0.00,,Overcast,170,2012-10-13 07:53:00
3:53 AM,55.0,50.0,83,29.95,10.0,South,10.4,19.6,0.01,Rain,Light Rain,180,2012-10-13 08:53:00
4:14 AM,55.4,51.8,88,29.95,8.0,South,10.4,-,0.01,Rain-Thunderstorm,Light Rain,180,2012-10-13 09:14:00
4:50 AM,55.4,53.6,94,29.93,2.5,SSE,15.0,-,0.27,Rain-Thunderstorm,Thunderstorms and Rain,150,2012-10-13 09:50:00
4:53 AM,55.0,53.1,93,29.92,4.0,SE,13.8,-,0.29,Rain-Thunderstorm,Thunderstorms and Rain,140,2012-10-13 09:53:00
5:12 AM,55.4,53.6,94,29.91,6.0,SSE,12.7,-,N/A,Thunderstorm,Overcast,150,2012-10-13 10:12:00
5:30 AM,55.4,53.6,94,29.91,5.0,SSE,9.2,-,0.04,Rain-Thunderstorm,Light Thunderstorms and Rain,160,2012-10-13 10:30:00
5:53 AM,55.0,54.0,96,29.91,4.0,South,11.5,-,0.04,Thunderstorm,Overcast,180,2012-10-13 10:53:00
6:07 AM,55.4,53.6,94,29.91,3.0,South,10.4,-,N/A,Thunderstorm,Overcast,180,2012-10-13 11:07:00
6:18 AM,55.4,55.4,100,29.91,1.8,South,13.8,19.6,0.02,Rain-Thunderstorm,Heavy Thunderstorms and Rain,180,2012-10-13 11:18:00
6:43 AM,57.2,55.4,94,29.91,2.0,South,11.5,-,0.28,Rain-Thunderstorm,Light Thunderstorms and Rain,180,2012-10-13 11:43:00
6:53 AM,57.0,55.9,96,29.93,2.0,SSW,11.5,-,0.35,Rain-Thunderstorm,Thunderstorms and Rain,210,2012-10-13 11:53:00
7:01 AM,57.2,55.4,94,29.91,1.8,South,13.8,19.6,0.14,Rain-Thunderstorm,Thunderstorms and Rain,180,2012-10-13 12:01:00
7:04 AM,57.2,57.2,100,29.91,3.0,South,9.2,19.6,0.15,Rain-Thunderstorm,Light Thunderstorms and Rain,180,2012-10-13 12:04:00
7:22 AM,59.0,57.2,94,29.91,4.0,South,10.4,-,0.16,Rain,Light Rain,180,2012-10-13 12:22:00
7:40 AM,59.0,57.2,94,29.91,2.0,South,11.5,-,0.16,,Overcast,180,2012-10-13 12:40:00
7:53 AM,59.0,57.9,96,29.91,1.5,South,10.4,-,0.16,Rain,Light Rain,180,2012-10-13 12:53:00
8:04 AM,59.0,57.2,94,29.90,2.0,South,10.4,-,0.00,,Overcast,180,2012-10-13 13:04:00
8:15 AM,60.8,57.2,88,29.90,1.5,South,10.4,-,0.01,Rain,Light Rain,180,2012-10-13 13:15:00
8:53 AM,60.1,59.0,96,29.90,1.2,South,10.4,18.4,0.01,,Overcast,170,2012-10-13 13:53:00
9:07 AM,60.8,59.0,94,29.90,0.8,South,11.5,18.4,N/A,,Overcast,180,2012-10-13 14:07:00
9:53 AM,62.1,61.0,96,29.88,0.8,South,13.8,-,0.01,,Overcast,180,2012-10-13 14:53:00
10:03 AM,62.6,60.8,94,29.88,1.2,South,17.3,23.0,N/A,,Overcast,190,2012-10-13 15:03:00
10:24 AM,62.6,62.6,100,29.87,2.0,South,15.0,21.9,N/A,,Overcast,190,2012-10-13 15:24:00
10:53 AM,64.0,62.1,93,29.85,2.5,South,15.0,25.3,0.02,Rain,Light Rain,180,2012-10-13 15:53:00
11:07 AM,64.4,62.6,94,29.83,3.0,South,12.7,21.9,0.00,,Overcast,170,2012-10-13 16:07:00
11:20 AM,64.4,62.6,94,29.82,3.0,South,12.7,25.3,N/A,,Overcast,170,2012-10-13 16:20:00
11:53 AM,64.9,62.1,90,29.82,5.0,South,18.4,31.1,0.00,,Overcast,190,2012-10-13 16:53:00
12:53 PM,66.9,63.0,87,29.78,6.0,South,13.8,-,N/A,,Overcast,180,2012-10-13 17:53:00
1:53 PM,69.1,63.0,81,29.77,10.0,SSW,24.2,33.4,N/A,,Mostly Cloudy,200,2012-10-13 18:53:00
2:53 PM,68.0,63.0,84,29.75,10.0,South,15.0,21.9,N/A,,Overcast,190,2012-10-13 19:53:00
3:53 PM,68.0,63.0,84,29.72,7.0,South,10.4,-,N/A,,Overcast,190,2012-10-13 20:53:00
4:53 PM,68.0,63.0,84,29.73,9.0,South,16.1,-,N/A,,Overcast,190,2012-10-13 21:53:00
5:02 PM,68.0,62.6,83,29.74,8.0,SSW,18.4,-,0.00,Rain-Thunderstorm,Light Rain,200,2012-10-13 22:02:00
5:53 PM,66.9,64.0,90,29.75,9.0,SSW,9.2,19.6,0.02,Rain-Thunderstorm,Light Thunderstorms and Rain,210,2012-10-13 22:53:00
6:04 PM,66.2,62.6,88,29.74,6.0,SW,6.9,-,0.02,Rain,Light Rain,220,2012-10-13 23:04:00
6:38 PM,66.2,64.4,94,29.71,10.0,South,16.1,23.0,0.02,,Mostly Cloudy,190,2012-10-13 23:38:00
7:53 PM,66.0,63.0,90,29.70,6.0,SSE,11.5,-,0.00,Rain,Light Rain,150,2012-10-14 00:53:00
8:25 PM,66.2,64.4,94,29.69,5.0,SE,11.5,19.6,0.01,Rain,Light Rain,140,2012-10-14 01:25:00
8:53 PM,66.0,64.0,93,29.68,4.0,SSE,12.7,19.6,0.03,Rain,Light Rain,150,2012-10-14 01:53:00
9:53 PM,66.0,64.0,93,29.66,7.0,SSE,12.7,23.0,0.02,Rain,Light Rain,150,2012-10-14 02:53:00
10:28 PM,66.2,62.6,88,29.65,6.0,SSE,18.4,24.2,0.01,Rain,Light Rain,150,2012-10-14 03:28:00
10:53 PM,66.0,63.0,90,29.63,5.0,SSE,13.8,21.9,0.03,Rain,Light Rain,160,2012-10-14 03:53:00
11:39 PM,64.4,62.6,94,29.64,5.0,SSE,11.5,21.9,0.10,Rain,Light Rain,160,2012-10-14 04:39:00
11:59 PM,64.4,62.6,94,29.63,7.0,South,6.9,17.3,N/A,,Overcast,170,2012-10-14 04:59:00